Bookmark and Share
Track history (hours):
 

Alaskan Explorer

Last reported at 2014-Apr-24 02:22 UTC. Time now 2014-Apr-24 05:56 UTC.
Position N 36°11' W 123°35'.

Length 288 m; draft 12.7 m.

Type: Tanker. MMSI: 303294000.

NotesDate/timePositionNaut miles runAvg speedWind from/ knotsBaromVisibWave heightAir tempDewpointWater temp
2014-Apr-24 02:22N 36°11' W 123°35'1012.6
2014-Apr-24 01:33N 36°02' W 123°30'1212.3
2014-Apr-24 00:33N 35°51' W 123°24'1212.0
2014-Apr-23 23:33N 35°40' W 123°18'1212.0
2014-Apr-23 22:33N 35°29' W 123°11'1212.1
2014-Apr-23 21:33N 35°20' W 123°01'1212.2
2014-Apr-23 20:32N 35°11' W 122°51'1511.9
2014-Apr-23 19:18N 35°00' W 122°39'912.0
2014-Apr-23 18:32N 34°53' W 122°32'1211.6
2014-Apr-23 17:31N 34°44' W 122°22'1111.0
2014-Apr-23 16:33N 34°36' W 122°14'1312.6
2014-Apr-23 15:33N 34°27' W 122°03'19011.2
2014-Apr-22 22:33N 33°38' W 118°21'10 0.5
2014-Apr-22 02:33N 33°45' W 118°13'0 0.0
2014-Apr-22 01:30N 33°45' W 118°13'0 0.0
2014-Apr-21 23:33N 33°45' W 118°13'0 0.0
2014-Apr-21 22:33N 33°45' W 118°13'0 0.4
2014-Apr-21 21:33N 33°45' W 118°13'1 1.2
2014-Apr-21 20:31N 33°44' W 118°12'0 0.0
2014-Apr-21 19:28N 33°44' W 118°12'0 0.1
2014-Apr-21 18:28N 33°44' W 118°12'0 0.0
2014-Apr-21 17:25N 33°44' W 118°12'0 0.1
2014-Apr-21 16:31N 33°44' W 118°12'0 0.0
2014-Apr-21 15:25N 33°44' W 118°12'0 0.1
2014-Apr-21 13:31N 33°44' W 118°12'0 0.0
2014-Apr-21 12:31N 33°44' W 118°12'0 0.0
2014-Apr-21 11:31N 33°44' W 118°13'0 0.1
2014-Apr-21 10:31N 33°44' W 118°13'0 0.0
2014-Apr-21 09:31N 33°44' W 118°13'0 0.0
2014-Apr-21 08:31N 33°44' W 118°13'0 0.1
2014-Apr-21 07:31N 33°44' W 118°13'0 0.0
2014-Apr-21 06:31N 33°44' W 118°12'0 0.0
2014-Apr-21 05:31N 33°44' W 118°12'0 0.1
2014-Apr-21 04:31N 33°44' W 118°12'0 0.0
2014-Apr-21 03:31N 33°44' W 118°12'0 0.0
2014-Apr-21 02:31N 33°44' W 118°12'0 0.0
2014-Apr-21 01:31N 33°44' W 118°12'0 0.0
2014-Apr-21 00:28N 33°44' W 118°12'0 0.0
2014-Apr-20 23:31N 33°44' W 118°12'0 0.1
2014-Apr-20 22:31N 33°44' W 118°12'0 0.1
2014-Apr-20 21:31N 33°44' W 118°13'0 0.0
2014-Apr-20 09:06N 33°44' W 118°13'0 0.1
2014-Apr-20 08:19N 33°44' W 118°13'0 0.1
2014-Apr-20 07:22N 33°44' W 118°12'0 0.0
2014-Apr-20 06:19N 33°44' W 118°12'0 0.0
2014-Apr-20 04:29N 33°44' W 118°12'2 2.1
2014-Apr-20 03:32N 33°42' W 118°11'7 7.2
2014-Apr-20 02:31N 33°36' W 118°15'1411.8
2014-Apr-20 01:21N 33°36' W 118°32'1411.8
2014-Apr-20 00:08N 33°36' W 118°49'811.8
2014-Apr-19 23:27N 33°37' W 118°58'10012.5
2014-Apr-19 15:25N 33°38' W 120°59'1212.5
2014-Apr-19 14:26N 33°41' W 121°13'1313.6
2014-Apr-19 13:30N 33°51' W 121°23'1313.5
2014-Apr-19 12:34N 33°60' W 121°34'1313.2
2014-Apr-19 11:33N 34°10' W 121°44'1412.9
2014-Apr-19 10:27N 34°20' W 121°56'1212.7
2014-Apr-19 09:33N 34°29' W 122°05'1313.1
2014-Apr-19 08:33N 34°39' W 122°16'1313.0
2014-Apr-19 07:33N 34°48' W 122°26'1313.0
2014-Apr-19 06:33N 34°58' W 122°37'1413.1
2014-Apr-19 05:29N 35°08' W 122°49'1213.2
2014-Apr-19 04:33N 35°17' W 122°58'1313.1
2014-Apr-19 03:33N 35°27' W 123°09'1313.1
2014-Apr-19 02:33N 35°39' W 123°17'1313.3
2014-Apr-19 01:33N 35°51' W 123°24'1313.3
2014-Apr-19 00:33N 36°03' W 123°31'1313.2
2014-Apr-18 23:33N 36°15' W 123°37'1312.9
2014-Apr-18 22:33N 36°27' W 123°44'5612.9
2014-Apr-18 18:10N 37°18' W 124°14'1710.4
2014-Apr-18 16:30N 37°34' W 124°23'1413.5
2014-Apr-18 15:26N 37°47' W 124°30'  

Dump ship's entire track history

sailing weather and tide predictions

Alaskan Explorer — WBD9918 — position and weather